Content
SEND FEEDBACK

Daily
Averages
Monthly
Summary
United States of America

CHICAGO, ILLINOIS


Home > North America > United States > Illinois
Elevation: 674 feet     Latitude: 41 59N     Longitude: 087 54W

WEATHER
 
SELECT A DAY
Number of Records: 195,010;   Date Range: 7/8/95 - 8/30/14
 
SHARE

PRINT THIS DATA

[ ← Previous Day ]
WEATHER ALMANAC - JANUARY 4, 2013
[ Next Day → ]
[ °C ]   °F
Weather ElementAverageHighLow
Temperature25.4 °F36 °F (2:52 pm)14 °F (3:52 am)
Dewpoint16.2 °F21.9 °F (8:52 pm)8.1 °F (2:52 am)
Humidity68.8 %80 % (6:52 am)52 % (1:52 pm)
Barometer30.22 in30.26 in (1:52 am)30.14 in (12:52 pm)
Wind Speed10.3 mph18.4 mph (12:52 pm)
Wind Gust28.8 mph (12:52 pm)
Weather ElementAverage
Visibility9.8 mi
Wind DirectionWSW (244.3 °)

Weather ElementTotal
Precipitation---
Heating Degree Days40 (Base 65)
Averaged from 23 records on January 4, 2013
WEATHER CONDITIONS BREAKOUT
WIND DIRECTION BREAKOUT
WEATHER BY HOUR - JANUARY 4, 2013
[ °C ]   °F
Local TimeTemperatureDewpointHumidityBarometerVisibilityWind DirectionWind SpeedGust SpeedPrecipitationEventsConditions
1:52 AM16.0 °F10.0 °F77 %30.26 in10.0 miWSW (250°)10.4 mphClear
2:52 AM15.1 °F8.1 °F74 %30.25 in10.0 miWSW (240°)9.2 mphClear
3:52 AM14.0 °F8.1 °F77 %30.24 in10.0 miWSW (240°)8.1 mphClear
4:52 AM14.0 °F8.1 °F77 %30.24 in10.0 miWSW (240°)10.4 mphClear
5:52 AM15.1 °F9.0 °F77 %30.23 in10.0 miSW (230°)8.1 mphClear
6:52 AM15.1 °F10.0 °F80 %30.22 in10.0 miSW (230°)9.2 mphClear
7:52 AM17.1 °F10.9 °F77 %30.22 in9.0 miSW (230°)12.7 mphClear
8:52 AM19.0 °F12.0 °F74 %30.23 in9.0 miWSW (250°)10.4 mph20.7 mphClear
9:52 AM21.9 °F12.9 °F68 %30.23 in10.0 miSW (230°)12.7 mphClear
10:52 AM27.0 °F16.0 °F63 %30.20 in10.0 miWSW (240°)8.1 mphClear
11:52 AM32.0 °F18.0 °F56 %30.17 in10.0 miWSW (250°)13.8 mph26.5 mphClear
12:52 PM34.0 °F19.0 °F54 %30.14 in10.0 miWSW (250°)18.4 mph28.8 mphClear
1:52 PM35.1 °F19.0 °F52 %30.14 in10.0 miWest (260°)15.0 mph25.3 mphClear
2:52 PM36.0 °F19.9 °F52 %30.16 in10.0 miWSW (250°)16.1 mph24.2 mphClear
3:52 PM35.1 °F19.9 °F54 %30.18 in10.0 miWSW (240°)11.5 mph21.9 mphClear
4:52 PM33.1 °F21.0 °F61 %30.20 in10.0 miWSW (250°)8.1 mphClear
5:52 PM32.0 °F21.0 °F64 %30.22 in10.0 miWSW (250°)10.4 mphClear
6:52 PM30.9 °F21.0 °F67 %30.23 in10.0 miWSW (250°)9.2 mph18.4 mphClear
7:52 PM30.0 °F21.0 °F69 %30.24 in10.0 miWest (260°)9.2 mph17.3 mphClear
8:52 PM28.9 °F21.9 °F75 %30.24 in10.0 miWSW (240°)6.9 mphClear
9:52 PM28.0 °F21.9 °F78 %30.24 in9.0 miWSW (250°)5.8 mphClear
10:52 PM28.0 °F21.9 °F78 %30.25 in9.0 miWSW (240°)6.9 mphClear
11:52 PM27.0 °F21.0 °F78 %30.24 in9.0 miWSW (250°)5.8 mphClear
Hourly data recorded from KPWK, located miles away from Chicago, Illinois







STORIES FROM OUR PARTNERS